Time,TemperatureF,DewpointF,PressureIn,WindDirection,WindDirectionDegrees,WindSpeedMPH,WindSpeedGustMPH,Humidity,HourlyPrecipIn,Conditions,Clouds,dailyrainin,SoftwareType,DateUTC
2013-03-20 13:56:00,41.5,32.8,29.50,SE,135,0.0,0.0,71,0.16,RA,SKC,0.18,WeatherDisplay:10.37,2013-03-20 13:56:00,
2013-03-20 13:57:00,41.5,32.8,29.50,SE,135,0.0,0.0,71,0.16,RA,SKC,0.18,WeatherDisplay:10.37,2013-03-20 13:57:00,
2013-03-20 14:02:00,41.2,32.5,29.50,SE,135,0.0,0.0,71,0.16,RA,SKC,0.18,WeatherDisplay:10.37,2013-03-20 14:02:00,
2013-03-20 14:07:00,40.8,32.1,29.50,ESE,112,0.0,0.0,71,0.16,,SKC,0.18,WeatherDisplay:10.37,2013-03-20 14:07:00,
2013-03-20 14:12:00,40.3,32.0,29.50,ESE,112,0.0,0.0,72,0.16,CLR,SKC,0.18,WeatherDisplay:10.37,2013-03-20 14:12:00,
2013-03-20 14:17:00,40.3,31.6,29.50,East,90,0.0,0.0,71,0.16,CLR,SKC,0.18,WeatherDisplay:10.37,2013-03-20 14:17:00,
2013-03-20 14:22:00,40.1,31.1,29.51,East,90,0.0,0.0,70,0.16,CLR,SKC,0.18,WeatherDisplay:10.37,2013-03-20 14:22:00,
2013-03-20 14:27:00,40.3,31.3,29.50,SE,135,0.0,0.0,70,0.16,CLR,SKC,0.18,WeatherDisplay:10.37,2013-03-20 14:27:00,
2013-03-20 14:33:00,40.6,32.0,29.50,ESE,112,0.0,0.0,71,0.16,CLR,SKC,0.18,WeatherDisplay:10.37,2013-03-20 14:33:00,
2013-03-20 14:38:00,40.6,32.3,29.51,SSE,158,0.0,0.0,72,0.16,CLR,SKC,0.18,WeatherDisplay:10.37,2013-03-20 14:38:00,
2013-03-20 14:43:00,40.5,31.4,29.51,ESE,112,0.0,0.0,70,0.16,CLR,SKC,0.18,WeatherDisplay:10.37,2013-03-20 14:43:00,
2013-03-20 14:48:00,40.3,31.3,29.51,ESE,112,0.0,0.0,70,0.16,CLR,SKC,0.18,WeatherDisplay:10.37,2013-03-20 14:48:00,
2013-03-20 14:53:00,40.3,30.9,29.51,East,90,0.0,0.0,69,0.16,CLR,SKC,0.18,WeatherDisplay:10.37,2013-03-20 14:53:00,
2013-03-20 14:58:00,40.3,30.9,29.51,SSE,158,0.0,0.0,69,0.00,CLR,SKC,0.18,WeatherDisplay:10.37,2013-03-20 14:58:00,
2013-03-20 15:03:00,39.9,30.6,29.51,East,90,0.0,0.0,69,0.00,CLR,SKC,0.18,WeatherDisplay:10.37,2013-03-20 15:03:00,
2013-03-20 15:08:00,39.7,30.4,29.51,SE,135,0.0,0.0,69,0.00,CLR,SKC,0.18,WeatherDisplay:10.37,2013-03-20 15:08:00,
2013-03-20 15:13:00,39.6,30.9,29.51,SE,135,0.0,0.0,71,0.00,CLR,SKC,0.18,WeatherDisplay:10.37,2013-03-20 15:13:00,
2013-03-20 15:18:00,39.4,31.1,29.52,SE,135,0.0,0.0,72,0.00,CLR,SKC,0.18,WeatherDisplay:10.37,2013-03-20 15:18:00,
2013-03-20 15:23:00,39.4,31.1,29.52,SE,135,0.0,0.0,72,0.00,CLR,SKC,0.18,WeatherDisplay:10.37,2013-03-20 15:23:00,
2013-03-20 15:28:00,38.8,31.3,29.52,East,90,0.0,0.0,74,0.00,CLR,SKC,0.18,WeatherDisplay:10.37,2013-03-20 15:28:00,
2013-03-20 15:33:00,39.0,31.1,29.52,East,90,0.0,0.0,73,0.00,CLR,SKC,0.18,WeatherDisplay:10.37,2013-03-20 15:33:00,
2013-03-20 15:38:00,39.0,30.4,29.52,SE,135,0.0,0.0,71,0.00,CLR,SKC,0.18,WeatherDisplay:10.37,2013-03-20 15:38:00,
2013-03-20 15:43:00,39.4,30.4,29.52,SW,225,0.0,0.0,70,0.00,CLR,SKC,0.18,WeatherDisplay:10.37,2013-03-20 15:43:00,
2013-03-20 15:48:00,39.4,30.4,29.52,ESE,112,0.0,0.0,70,0.00,CLR,SKC,0.18,WeatherDisplay:10.37,2013-03-20 15:48:00,
2013-03-20 15:53:00,39.4,30.4,29.53,SE,135,0.0,0.0,70,0.00,CLR,SKC,0.18,WeatherDisplay:10.37,2013-03-20 15:53:00,
2013-03-20 15:58:00,39.4,30.4,29.53,ESE,112,0.0,0.0,70,0.00,CLR,SKC,0.18,WeatherDisplay:10.37,2013-03-20 15:58:00,
2013-03-20 16:03:00,39.0,30.1,29.53,ESE,112,0.0,0.0,70,0.00,CLR,SKC,0.18,WeatherDisplay:10.37,2013-03-20 16:03:00,
2013-03-20 16:08:00,38.8,30.6,29.54,SE,135,0.0,0.0,72,0.00,CLR,SKC,0.18,WeatherDisplay:10.37,2013-03-20 16:08:00,
2013-03-20 16:13:00,38.7,30.4,29.54,SE,135,0.0,0.0,72,0.00,CLR,SKC,0.18,WeatherDisplay:10.37,2013-03-20 16:13:00,
2013-03-20 16:18:00,38.5,30.6,29.54,ESE,112,0.0,0.0,73,0.00,CLR,SKC,0.18,WeatherDisplay:10.37,2013-03-20 16:18:00,
2013-03-20 16:23:00,38.3,30.4,29.55,ESE,112,0.0,0.0,73,0.00,CLR,SKC,0.18,WeatherDisplay:10.37,2013-03-20 16:23:00,
2013-03-20 16:28:00,38.3,30.1,29.55,SE,135,0.0,0.0,72,0.00,CLR,SKC,0.18,WeatherDisplay:10.37,2013-03-20 16:28:00,
2013-03-20 16:33:00,38.3,30.4,29.55,ENE,68,0.0,0.0,73,0.00,CLR,SKC,0.18,WeatherDisplay:10.37,2013-03-20 16:33:00,
2013-03-20 16:38:00,38.1,30.6,29.55,ESE,112,0.0,0.0,74,0.00,CLR,SKC,0.18,WeatherDisplay:10.37,2013-03-20 16:38:00,
2013-03-20 16:43:00,37.9,30.4,29.55,East,90,0.0,0.0,74,0.00,CLR,SKC,0.18,WeatherDisplay:10.37,2013-03-20 16:43:00,
2013-03-20 16:48:00,37.9,30.7,29.55,ESE,112,0.0,0.0,75,0.00,CLR,SKC,0.18,WeatherDisplay:10.37,2013-03-20 16:48:00,
2013-03-20 16:54:00,37.9,30.4,29.55,East,90,0.0,0.0,74,0.00,CLR,SKC,0.18,WeatherDisplay:10.37,2013-03-20 16:54:00,
2013-03-20 16:59:00,37.9,30.4,29.55,SSE,158,0.0,0.0,74,0.00,CLR,SKC,0.18,WeatherDisplay:10.37,2013-03-20 16:59:00,
2013-03-20 17:04:00,37.9,30.4,29.55,SSE,158,0.0,0.0,74,0.00,CLR,SKC,0.18,WeatherDisplay:10.37,2013-03-20 17:04:00,
2013-03-20 17:09:00,37.8,30.2,29.55,SE,135,0.0,0.0,74,0.00,CLR,SKC,0.18,WeatherDisplay:10.37,2013-03-20 17:09:00,
2013-03-20 17:14:00,37.6,30.0,29.55,SE,135,0.0,0.0,74,0.00,CLR,SKC,0.18,WeatherDisplay:10.37,2013-03-20 17:14:00,
2013-03-20 17:19:00,37.4,30.2,29.55,East,90,0.0,0.0,75,0.00,CLR,SKC,0.18,WeatherDisplay:10.37,2013-03-20 17:19:00,
2013-03-20 17:24:00,37.4,30.2,29.56,SE,135,0.0,0.0,75,0.00,CLR,SKC,0.18,WeatherDisplay:10.37,2013-03-20 17:24:00,
2013-03-20 17:29:00,37.4,30.2,29.56,SE,135,0.0,0.0,75,0.00,CLR,SKC,0.18,WeatherDisplay:10.37,2013-03-20 17:29:00,
2013-03-20 17:34:00,37.2,30.0,29.57,East,90,0.0,0.0,75,0.00,CLR,SKC,0.18,WeatherDisplay:10.37,2013-03-20 17:34:00,
2013-03-20 17:39:00,37.2,30.0,29.57,ESE,112,0.0,0.0,75,0.00,CLR,SKC,0.18,WeatherDisplay:10.37,2013-03-20 17:39:00,
2013-03-20 17:44:00,37.2,30.0,29.57,SSE,158,0.0,0.0,75,0.00,CLR,SKC,0.18,WeatherDisplay:10.37,2013-03-20 17:44:00,
2013-03-20 17:49:00,37.0,30.2,29.57,SE,135,0.0,0.0,76,0.00,CLR,SKC,0.18,WeatherDisplay:10.37,2013-03-20 17:49:00,
2013-03-20 17:54:00,37.0,30.2,29.57,SE,135,0.0,0.0,76,0.00,CLR,SKC,0.18,WeatherDisplay:10.37,2013-03-20 17:54:00,
2013-03-20 17:59:00,37.0,30.2,29.57,East,90,0.0,0.0,76,0.00,CLR,SKC,0.18,WeatherDisplay:10.37,2013-03-20 17:59:00,
2013-03-20 18:04:00,36.7,29.8,29.57,SE,135,0.0,0.0,76,0.00,CLR,SKC,0.18,WeatherDisplay:10.37,2013-03-20 18:04:00,
2013-03-20 18:09:00,36.7,29.8,29.57,SE,135,0.0,0.0,76,0.00,CLR,SKC,0.18,WeatherDisplay:10.37,2013-03-20 18:09:00,
2013-03-20 18:14:00,36.7,29.8,29.58,SE,135,0.0,0.0,76,0.00,CLR,SKC,0.18,WeatherDisplay:10.37,2013-03-20 18:14:00,
2013-03-20 18:19:00,36.7,29.8,29.58,East,90,0.0,0.0,76,0.00,CLR,SKC,0.18,WeatherDisplay:10.37,2013-03-20 18:19:00,
2013-03-20 18:24:00,36.5,30.0,29.58,SSE,158,0.0,0.0,77,0.00,CLR,SKC,0.18,WeatherDisplay:10.37,2013-03-20 18:24:00,
2013-03-20 18:29:00,36.3,29.8,29.59,SE,135,0.0,0.0,77,0.00,CLR,SKC,0.18,WeatherDisplay:10.37,2013-03-20 18:29:00,
2013-03-20 18:34:00,36.3,29.8,29.59,ESE,112,0.0,0.0,77,0.00,CLR,SKC,0.18,WeatherDisplay:10.37,2013-03-20 18:34:00,
2013-03-20 18:39:00,36.3,29.8,29.59,ESE,112,0.0,0.0,77,0.00,CLR,SKC,0.18,WeatherDisplay:10.37,2013-03-20 18:39:00,
2013-03-20 18:44:00,36.3,29.8,29.59,ESE,112,0.0,0.0,77,0.00,CLR,SKC,0.18,WeatherDisplay:10.37,2013-03-20 18:44:00,
2013-03-20 18:49:00,36.3,29.8,29.59,ESE,112,0.0,0.0,77,0.00,CLR,SKC,0.18,WeatherDisplay:10.37,2013-03-20 18:49:00,
2013-03-20 18:54:00,36.3,29.8,29.59,East,90,0.0,0.0,77,0.00,CLR,SKC,0.18,WeatherDisplay:10.37,2013-03-20 18:54:00,
2013-03-20 18:59:00,36.3,29.8,29.59,SSE,158,0.0,0.0,77,0.00,CLR,SKC,0.18,WeatherDisplay:10.37,2013-03-20 18:59:00,
2013-03-20 19:04:00,36.3,29.8,29.59,ENE,68,0.0,0.0,77,0.00,CLR,SKC,0.18,WeatherDisplay:10.37,2013-03-20 19:04:00,
2013-03-20 19:09:00,36.3,29.8,29.60,SSE,158,0.0,0.0,77,0.00,CLR,SKC,0.18,WeatherDisplay:10.37,2013-03-20 19:09:00,
2013-03-20 19:14:00,36.1,29.6,29.60,SE,135,0.0,0.0,77,0.00,CLR,SKC,0.18,WeatherDisplay:10.37,2013-03-20 19:14:00,
2013-03-20 19:19:00,36.1,29.9,29.60,SE,135,0.0,0.0,78,0.00,CLR,SKC,0.18,WeatherDisplay:10.37,2013-03-20 19:19:00,
2013-03-20 19:24:00,36.1,29.9,29.60,SE,135,0.0,0.0,78,0.00,CLR,SKC,0.18,WeatherDisplay:10.37,2013-03-20 19:24:00,
2013-03-20 19:29:00,36.0,29.8,29.60,SE,135,0.0,0.0,78,0.00,CLR,SKC,0.18,WeatherDisplay:10.37,2013-03-20 19:29:00,
2013-03-20 19:34:00,36.0,29.8,29.61,SE,135,0.0,0.0,78,0.00,CLR,SKC,0.18,WeatherDisplay:10.37,2013-03-20 19:34:00,
2013-03-20 19:39:00,36.0,29.8,29.61,ESE,112,0.0,0.0,78,0.00,CLR,SKC,0.18,WeatherDisplay:10.37,2013-03-20 19:39:00,
2013-03-20 19:44:00,35.8,29.3,29.61,South,180,0.0,0.0,77,0.00,CLR,SKC,0.18,WeatherDisplay:10.37,2013-03-20 19:44:00,
2013-03-20 19:49:00,35.4,29.2,29.61,SE,135,0.0,0.0,78,0.00,CLR,SKC,0.18,WeatherDisplay:10.37,2013-03-20 19:49:00,
2013-03-20 19:54:00,35.2,29.1,29.62,SE,135,0.0,0.0,78,0.00,CLR,SKC,0.18,WeatherDisplay:10.37,2013-03-20 19:54:00,
2013-03-20 19:59:00,35.1,29.2,29.62,SSW,202,0.0,0.0,79,0.00,CLR,SKC,0.18,WeatherDisplay:10.37,2013-03-20 19:59:00,
2013-03-20 20:04:00,34.9,29.0,29.62,South,180,0.0,0.0,79,0.00,CLR,SKC,0.18,WeatherDisplay:10.37,2013-03-20 20:04:00,
2013-03-20 20:09:00,34.9,29.0,29.62,ESE,112,0.0,0.0,79,0.00,CLR,SKC,0.18,WeatherDisplay:10.37,2013-03-20 20:09:00,
2013-03-20 20:14:00,34.7,28.9,29.61,ESE,112,0.0,0.0,79,0.00,CLR,SKC,0.18,WeatherDisplay:10.37,2013-03-20 20:14:00,
2013-03-20 20:19:00,34.9,29.0,29.62,SSW,202,0.0,0.0,79,0.00,CLR,SKC,0.18,WeatherDisplay:10.37,2013-03-20 20:19:00,
2013-03-20 20:24:00,34.7,28.9,29.62,South,180,0.0,0.0,79,0.00,CLR,SKC,0.18,WeatherDisplay:10.37,2013-03-20 20:24:00,
2013-03-20 20:29:00,34.3,28.8,29.62,ESE,112,0.0,0.0,80,0.00,CLR,SKC,0.18,WeatherDisplay:10.37,2013-03-20 20:29:00,
2013-03-20 20:34:00,34.3,28.8,29.62,SSE,162,0.0,0.0,80,0.00,CLR,SKC,0.18,WeatherDisplay:10.37,2013-03-20 20:34:00,
2013-03-20 20:39:00,34.3,28.8,29.62,SSE,158,0.0,0.0,80,0.00,CLR,SKC,0.18,WeatherDisplay:10.37,2013-03-20 20:39:00,
2013-03-20 20:44:00,34.0,28.5,29.62,SE,135,0.0,0.0,80,0.00,CLR,SKC,0.18,WeatherDisplay:10.37,2013-03-20 20:44:00,
2013-03-20 20:49:00,33.8,28.6,29.62,SSE,154,0.0,0.0,81,0.00,CLR,SKC,0.18,WeatherDisplay:10.37,2013-03-20 20:49:00,
2013-03-20 20:54:00,33.6,28.4,29.63,ESE,112,0.0,0.0,81,0.00,CLR,SKC,0.18,WeatherDisplay:10.37,2013-03-20 20:54:00,
2013-03-20 20:59:00,33.6,28.4,29.63,ESE,112,0.0,0.0,81,0.00,CLR,SKC,0.18,WeatherDisplay:10.37,2013-03-20 20:59:00,
2013-03-20 21:05:00,33.3,28.1,29.63,ESE,112,0.0,0.0,81,0.00,CLR,SKC,0.18,WeatherDisplay:10.37,2013-03-20 21:05:00,
2013-03-20 21:10:00,33.1,28.2,29.63,ESE,112,0.0,0.0,82,0.00,CLR,SKC,0.18,WeatherDisplay:10.37,2013-03-20 21:10:00,
2013-03-20 21:14:00,33.1,28.2,29.63,ESE,112,0.0,0.0,82,0.00,CLR,SKC,0.18,WeatherDisplay:10.37,2013-03-20 21:14:00,
2013-03-20 21:20:00,32.7,27.9,29.64,ESE,112,0.0,0.0,82,0.00,CLR,SKC,0.18,WeatherDisplay:10.37,2013-03-20 21:20:00,
2013-03-20 21:24:00,32.6,28.0,29.63,ESE,112,0.0,0.0,83,0.00,CLR,SKC,0.18,WeatherDisplay:10.37,2013-03-20 21:24:00,
2013-03-20 21:29:00,32.3,27.7,29.64,ESE,112,0.0,0.0,83,0.00,CLR,SKC,0.18,WeatherDisplay:10.37,2013-03-20 21:29:00,
2013-03-20 21:34:00,31.8,27.5,29.64,ESE,112,0.0,0.0,84,0.00,CLR,SKC,0.18,WeatherDisplay:10.37,2013-03-20 21:34:00,
2013-03-20 21:39:00,31.8,27.5,29.65,SE,135,0.0,0.0,84,0.00,CLR,SKC,0.18,WeatherDisplay:10.37,2013-03-20 21:39:00,
2013-03-20 21:44:00,31.8,27.8,29.65,SSE,158,0.0,0.0,85,0.00,CLR,SKC,0.18,WeatherDisplay:10.37,2013-03-20 21:44:00,
2013-03-20 21:49:00,31.8,27.8,29.65,SSE,158,0.0,0.0,85,0.00,CLR,SKC,0.18,WeatherDisplay:10.37,2013-03-20 21:49:00,
2013-03-20 21:54:00,31.8,28.1,29.65,SSE,158,0.0,0.0,86,0.00,CLR,SKC,0.18,WeatherDisplay:10.37,2013-03-20 21:54:00,
2013-03-20 22:00:00,32.2,28.5,29.65,SSE,163,0.0,0.0,86,0.00,CLR,SKC,0.18,WeatherDisplay:10.37,2013-03-20 22:00:00,
2013-03-20 22:04:00,32.2,28.5,29.65,South,187,0.0,0.0,86,0.00,CLR,SKC,0.18,WeatherDisplay:10.37,2013-03-20 22:04:00,
2013-03-20 22:09:00,32.2,28.5,29.65,SSW,202,0.0,0.0,86,0.00,CLR,SKC,0.18,WeatherDisplay:10.37,2013-03-20 22:09:00,
2013-03-20 22:15:00,32.2,28.5,29.66,SSW,202,0.0,0.0,86,0.00,CLR,SKC,0.18,WeatherDisplay:10.37,2013-03-20 22:15:00,
2013-03-20 22:20:00,32.2,28.5,29.66,SSW,202,0.0,0.0,86,0.00,CLR,SKC,0.18,WeatherDisplay:10.37,2013-03-20 22:20:00,
2013-03-20 22:24:00,32.2,28.5,29.66,SSW,202,0.0,0.0,86,0.00,CLR,SKC,0.18,WeatherDisplay:10.37,2013-03-20 22:24:00,
2013-03-20 22:30:00,32.2,28.5,29.66,SSW,202,0.0,0.0,86,0.00,CLR,SKC,0.18,WeatherDisplay:10.37,2013-03-20 22:30:00,
2013-03-20 22:34:00,32.2,28.5,29.67,SSW,202,0.0,0.0,86,0.00,CLR,SKC,0.18,WeatherDisplay:10.37,2013-03-20 22:34:00,
2013-03-20 22:39:00,32.2,28.2,29.66,SSW,202,0.0,0.0,85,0.00,CLR,SKC,0.18,WeatherDisplay:10.37,2013-03-20 22:39:00,
2013-03-20 22:44:00,31.8,27.8,29.66,SSW,202,0.0,0.0,85,0.00,CLR,SKC,0.18,WeatherDisplay:10.37,2013-03-20 22:44:00,
2013-03-20 22:49:00,31.6,27.6,29.66,SSW,202,0.0,0.0,85,0.00,CLR,SKC,0.18,WeatherDisplay:10.37,2013-03-20 22:49:00,
2013-03-20 22:55:00,31.3,27.3,29.66,SSW,202,0.0,0.0,85,0.00,CLR,SKC,0.18,WeatherDisplay:10.37,2013-03-20 22:55:00,
2013-03-20 22:59:00,31.0,27.0,29.66,SSW,202,0.0,0.0,85,0.00,CLR,SKC,0.18,WeatherDisplay:10.37,2013-03-20 22:59:00,
2013-03-20 23:04:00,30.7,27.0,29.66,SSW,202,0.0,0.0,86,0.00,CLR,SKC,0.18,WeatherDisplay:10.37,2013-03-20 23:04:00,
2013-03-20 23:10:00,30.7,27.0,29.66,SSW,202,0.0,0.0,86,0.00,CLR,SKC,0.18,WeatherDisplay:10.37,2013-03-20 23:10:00,
2013-03-20 23:15:00,30.6,26.9,29.67,SSW,202,0.0,0.0,86,0.00,CLR,SKC,0.18,WeatherDisplay:10.37,2013-03-20 23:15:00,
2013-03-20 23:19:00,30.7,27.0,29.66,SSW,202,0.0,0.0,86,0.00,CLR,SKC,0.18,WeatherDisplay:10.37,2013-03-20 23:19:00,
2013-03-20 23:24:00,30.9,27.2,29.66,SSW,202,0.0,0.0,86,0.00,CLR,SKC,0.18,WeatherDisplay:10.37,2013-03-20 23:24:00,
2013-03-20 23:29:00,30.9,27.2,29.67,SSW,202,0.0,0.0,86,0.00,CLR,SKC,0.18,WeatherDisplay:10.37,2013-03-20 23:29:00,
2013-03-20 23:34:00,30.7,27.3,29.66,SSW,202,0.0,0.0,87,0.00,CLR,SKC,0.18,WeatherDisplay:10.37,2013-03-20 23:34:00,
2013-03-20 23:39:00,30.7,27.3,29.66,SSW,202,0.0,0.0,87,0.00,CLR,SKC,0.18,WeatherDisplay:10.37,2013-03-20 23:39:00,
2013-03-20 23:44:00,30.6,27.2,29.66,SE,135,0.0,0.0,87,0.00,CLR,SKC,0.18,WeatherDisplay:10.37,2013-03-20 23:44:00,
2013-03-20 23:49:00,30.7,27.3,29.66,SE,135,0.0,0.0,87,0.00,CLR,SKC,0.18,WeatherDisplay:10.37,2013-03-20 23:49:00,
2013-03-20 23:54:00,30.7,27.3,29.66,ESE,112,0.0,0.0,87,0.00,CLR,SKC,0.18,WeatherDisplay:10.37,2013-03-20 23:54:00,
2013-03-20 23:59:00,30.6,27.2,29.66,ESE,112,0.0,0.0,87,0.00,CLR,SKC,0.18,WeatherDisplay:10.37,2013-03-20 23:59:00,